www.pogodaiklimat.ru

Погода и климат >> Архив погоды >> Австралия >> Alice Springs Airport


ПОГОДА в Alice Springs Airport

  • Прогноз погоды в Alice Springs Airport
  • Монитор погоды в Alice Springs Airport
  • Климат города

АРХИВ ПОГОДЫ в Alice Springs Airport

Время (UTC), дата Ветер
(напр.,м/с)
 
Видим.   Явления Облачность Т
(С)
Тd
(С)
f
(%)
Тe
(С)
Тes
(С)
Комфортность P
(гПа)
Po
(гПа)
Тmin
(С)
Tmax
(С)
R
(мм)
R24
(мм)
S
(см)
14 9.07 штиль 0 н/о н/о +3.5 -3.3 61 +3 +3 1026.6 962.1
15 9.07 СЗ 2 н/о н/о +4.1 -2.7 61 +2 +2 1026.4 961.9
17 9.07 СЗ 2 н/о н/о +0.6 -4.8 67 -3 -3 1025.6 961.1
18 9.07 СЗ 2 н/о н/о +0.1 -4.7 70 -3 -3 1025.4 960.9
20 9.07 З 3 н/о н/о -0.7 -4.0 78 -5 -5 1024.9 960.5
21 9.07 З 2 н/о н/о -1.5 -5.5 74 -5 -5 1025.1 960.7
23 9.07 штиль 0 н/о н/о +3.4 -2.1 67 +3 +3 1026.0 961.5
00 10.07 В 4 н/о н/о +9.8 +1.5 56 +7 +7 1026.0 961.5
02 10.07 В 8 н/о н/о +13.4 +1.1 43 +11 +11 1025.5 961.0
03 10.07 В 6 н/о н/о +14.9 0.0 36 +13 +13 1024.7 960.3
05 10.07 В 7 н/о н/о +17.1 -2.0 27 +16 +16 1022.6 958.3
06 10.07 ЮВ 5 н/о н/о +17.4 -1.8 27 +17 +17 1021.9 957.7
08 10.07 ЮВ 6 н/о н/о +16.0 -2.0 29 +15 +15 1022.0 957.8
09 10.07 ЮВ 4 н/о н/о +13.0 -2.9 33 +12 +12 1022.5 958.2
11 10.07 ЮВ 2 н/о н/о +8.3 -3.2 44 +7 +7 1024.0 959.6
12 10.07 В 2 н/о н/о +6.1 -4.3 47 +5 +5 1024.2 959.8
14 10.07 СВ 1 н/о н/о +2.4 -4.8 59 +3 +3 1024.3 959.9
15 10.07 штиль 0 н/о н/о +3.4 -3.4 61 +3 +3 1024.4 960.0
17 10.07 Ю 2 н/о н/о +0.3 -6.1 62 -3 -3 1024.0 959.6
18 10.07 СЗ 2 н/о н/о -0.2 -5.4 68 -4 -4 1023.4 959.1
20 10.07 З 2 н/о н/о -1.3 -6.1 70 -5 -5 1023.6 959.3
21 10.07 З 3 н/о н/о -0.7 -4.6 75 -5 -5 1024.2 959.8
23 10.07 З 2 н/о н/о +3.7 -3.1 61 +2 +2 1025.0 960.6
00 11.07 В 3 н/о н/о +8.9 -0.7 51 +7 +7 1025.5 961.0
02 11.07 В 5 н/о н/о +13.1 -0.5 39 +11 +11 1024.6 960.2
03 11.07 В 5 н/о н/о +14.1 -2.3 32 +13 +13 1023.6 959.3
05 11.07 В 5 н/о н/о +16.8 -3.3 25 +16 +16 1021.5 957.3
06 11.07 В 5 н/о н/о +17.8 -4.2 22 +17 +17 1021.1 956.9
08 11.07 В 4 н/о н/о +17.2 -8.0 17 +17 +17 1021.0 956.8
09 11.07 ЮВ 4 н/о н/о +12.8 -7.2 24 +12 +12 1021.5 957.3
11 11.07 ЮВ 3 н/о н/о +9.3 -6.9 31 +8 +8 1022.7 958.4
12 11.07 СВ 2 н/о н/о +7.7 -6.4 36 +6 +6 1023.0 958.7
14 11.07 В 3 н/о н/о +5.9 -7.7 37 +3 +3 1023.0 958.7
15 11.07 штиль 0 н/о н/о +2.8 -7.4 47 +3 +3 1022.9 958.6
17 11.07 З 2 н/о н/о +0.3 -7.2 57 -3 -3 1022.4 958.1
18 11.07 З 3 н/о н/о -1.2 -9.1 55 -6 -6 1022.1 957.9
20 11.07 З 3 н/о н/о -1.9 -8.2 62 -6 -6 1022.3 958.0
21 11.07 СЗ 3 н/о н/о -2.5 -8.6 63 -7 -7 1022.9 958.6
23 11.07 З 2 н/о н/о +2.2 -6.9 51 0 0 1023.7 959.4
00 12.07 В 3 н/о н/о +7.5 -5.5 39 +6 +6 1024.2 959.8
02 12.07 В 5 н/о н/о +12.7 -4.0 31 +11 +11 1023.4 959.1
03 12.07 В 5 н/о н/о +14.1 -4.6 27 +13 +13 1022.6 958.3
05 12.07 В 4 н/о н/о +16.3 -7.3 19 +16 +16 1020.2 956.1
06 12.07 В 4 н/о н/о +17.6 -9.3 15 +18 +18 1019.9 955.8
08 12.07 В 4 н/о н/о +16.8 -9.1 16 +16 +16 1019.5 955.4
09 12.07 ЮВ 4 н/о н/о +11.9 -8.5 23 +10 +10 1020.1 956.0
11 12.07 ЮВ 2 н/о н/о +6.7 -9.2 31 +5 +5 1021.4 957.2
12 12.07 штиль 0 н/о н/о +5.2 -8.3 37 +5 +5 1021.7 957.5
14 12.07 штиль 0 н/о н/о +2.6 -9.0 42 +2 +2 1021.8 957.6
15 12.07 штиль 0 н/о н/о +1.0 -9.6 45 +1 +1 1021.7 957.5
17 12.07 З 2 н/о н/о -1.3 -10.4 50 -5 -5 1021.2 957.0
18 12.07 СЗ 2 н/о н/о -1.6 -10.1 52 -5 -5 1020.9 956.7
20 12.07 З 3 н/о н/о -3.2 -10.5 57 -7 -7 1020.9 956.7
21 12.07 З 3 н/о н/о -3.2 -10.0 59 -8 -8 1021.2 957.0
23 12.07 СЗ 2 н/о н/о +2.3 -8.1 46 -0 -0 1022.4 958.1
00 13.07 штиль 0 н/о н/о +7.8 -7.1 34 +8 +8 1022.9 958.6
02 13.07 В 4 н/о н/о +14.2 -6.1 24 +13 +13 1021.9 957.7
03 13.07 В 4 н/о н/о +16.0 -8.3 18 +16 +16 1020.9 956.7
05 13.07 ЮВ 3 н/о н/о +18.7 -9.3 14 +19 +19 1018.6 954.6
06 13.07 В 4 н/о н/о +19.1 -9.9 13 +19 +19 1017.9 953.9
08 13.07 ЮВ 4 н/о н/о +18.0 -10.8 13 +18 +18 1018.1 954.1
09 13.07 В 3 н/о н/о +14.4 -10.3 17 +14 +14 1018.5 954.5
11 13.07 штиль 0 н/о н/о +7.6 -11.1 25 +8 +8 1020.2 956.1
12 13.07 штиль 0 н/о н/о +6.0 -12.5 25 +6 +6 1020.5 956.4
14 13.07 ЮЗ 2 н/о н/о +4.2 -11.8 30 +2 +2 1021.0 956.8
15 13.07 штиль 0 н/о н/о +1.7 -13.6 31 +2 +2 1020.9 956.7
17 13.07 СЗ 3 н/о н/о +0.5 -13.5 34 -3 -3 1020.2 956.1
18 13.07 СЗ 3 н/о н/о -0.6 -13.8 36 -4 -4 1019.8 955.7
20 13.07 С 2 н/о н/о -0.6 -12.2 41 -4 -4 1019.8 955.7
21 13.07 З 2 н/о н/о -2.5 -13.9 41 -5 -5 1020.2 956.1
23 13.07 СЗ 1 н/о н/о +3.7 -12.2 30 +3 +3 1021.0 956.8
00 14.07 СЗ 2 н/о н/о +9.6 -9.9 24 +9 +9 1021.0 956.8
02 14.07 Ю 1 н/о н/о +16.6 -11.0 14 +18 +18 1020.0 955.9
03 14.07 В 2 н/о н/о +19.0 -12.1 11 +19 +19 1018.6 954.6
05 14.07 В 4 н/о н/о +20.5 -12.1 10 +20 +20 1016.6 952.7
06 14.07 Ю 4 н/о н/о +20.5 -13.4 9 +20 +20 1015.7 951.9
08 14.07 В 3 н/о н/о +19.1 -14.5 9 +19 +19 1015.3 951.5
09 14.07 В 3 н/о н/о +15.9 -14.5 11 +16 +16 1015.5 951.7
11 14.07 В 4 н/о н/о +11.3 -15.2 14 +10 +10 1016.8 952.9
12 14.07 В 3 н/о н/о +7.6 -15.8 17 +6 +6 1017.3 953.4
14 14.07 В 3 н/о н/о +6.9 -13.9 21 +5 +5 1017.2 953.3
15 14.07 СВ 1 н/о н/о +3.0 -17.1 21 +4 +4 1017.1 953.2
17 14.07 З 2 н/о н/о +2.2 -15.7 25 0 0 1016.5 952.6
18 14.07 С 2 н/о н/о -0.4 -17.1 27 -3 -3 1016.3 952.4
20 14.07 З 2 н/о н/о -1.9 -18.8 26 -4 -4 1016.1 952.2
21 14.07 С 2 н/о н/о +4.6 -13.7 25 +4 +4 1016.2 952.3
23 14.07 З 3 н/о н/о +8.6 -13.7 19 +7 +7 1017.2 953.3
00 15.07 З 2 н/о н/о +13.3 -13.6 14 +14 +14 1017.3 953.4
02 15.07 СЗ 7 н/о н/о +19.4 -13.0 10 +18 +18 1016.0 952.1
03 15.07 СЗ 6 н/о н/о +20.5 -12.1 10 +19 +19 1015.0 951.2
05 15.07 З 7 н/о н/о +21.9 -12.4 9 +20 +20 1013.2 949.5
06 15.07 З 8 н/о н/о +21.8 -12.4 9 +20 +20 1012.9 949.2
08 15.07 З 5 н/о н/о +20.8 -13.2 9 +20 +20 1013.5 949.8
09 15.07 З 3 н/о н/о +16.4 -14.1 11 +16 +16 1014.3 950.5
11 15.07 СЗ 3 н/о н/о +13.5 -11.8 16 +13 +13 1016.0 952.1
12 15.07 С 4 н/о н/о +13.1 -11.4 17 +12 +12 1016.4 952.5
14 15.07 СЗ 3 н/о н/о +8.4 -11.5 23 +7 +7 1016.6 952.7
15 15.07 СЗ 3 н/о н/о +8.2 -11.1 24 +6 +6 1016.3 952.4
17 15.07 СЗ 3 н/о н/о +6.3 -11.8 26 +4 +4 1016.1 952.2
18 15.07 СЗ 3 н/о н/о +8.3 -10.5 25 +7 +7 1015.9 952.0
20 15.07 Ю 2 н/о н/о +3.0 -14.1 27 +1 +1 1016.0 952.1
21 15.07 З 3 н/о н/о +3.5 -11.6 32 +1 +1 1017.2 953.3
23 15.07 ЮЗ 3 н/о н/о +9.6 -9.9 24 +8 +8 1018.7 954.7
00 16.07 З 3 н/о н/о +15.3 -8.2 19 +15 +15 1019.3 955.2
02 16.07 ЮЗ 2 н/о н/о +19.8 -2.5 22 +21 +21 комфорт 1018.6 954.6
03 16.07 ЮВ 3 н/о н/о +21.4 -3.1 19 +21 +21 комфорт 1017.8 953.8
05 16.07 В 3 н/о н/о +22.7 -5.2 15 +21 +21 комфорт 1015.9 952.0
06 16.07 Ю 2 н/о н/о +23.7 -5.3 14 +22 +22 комфорт 1015.4 951.6
08 16.07 ЮВ 3 н/о н/о +22.2 -6.5 14 +21 +21 комфорт 1015.0 951.2
09 16.07 В 3 н/о н/о +19.0 -5.8 18 +19 +19 1015.4 951.6
11 16.07 СВ 3 н/о н/о +14.0 -5.2 26 +14 +14 1016.9 953.0

 

Местоположение метеостанции Alice Springs Airport (Северная территория, Австралия): широта -23.80 долгота 133.88 высота над уровнем моря 547 м.

В архиве по умолчанию представлена погода в Alice Springs Airport за последнюю неделю. Архивные данные за месяц целиком и за предыдущие месяцы, начиная с января 2011 года, Вы можете получить, выбрав интересующий диапазон дат из раскрывающегося списка и нажав кнопку "Ввод!".


*Определитесь, кто Вы:
робот инопланетянин человек

Внимание! Время в таблицах - всемирное. Для получения местного времени необходимо прибавить поправку, которая в Alice Springs Airport равна 9.5 ч.

Смотрите также архив погоды в соседних городах и на ближайших метеорологических станциях:

Погода в Territory Grape Farm (Северная территория, Австралия) (152 км)
Погода в Jervois (Северная территория, Австралия) (250 км)
Погода в Pukatja (Южная Австралия, Австралия) (324 км)
Погода в Yulara Aero (Северная территория, Австралия) (332 км)
Погода в Oodnadatta Airport (Южная Австралия, Австралия) (446 км)
Погода в Wulungurru (Северная территория, Австралия) (464 км)
Погода в Tennant Creek Airport (Северная территория, Австралия) (465 км)
Погода в Rabbit Flat (Северная территория, Австралия) (566 км)
Погода в Giles Meteorologica (Западная Австралия, Австралия) (581 км)
Погода в Coober Pedy Airport (Южная Австралия, Австралия) (588 км)

Пояснения к столбцам:

Ветер - указаны скорость ветра в м/с - средняя за 10 мин, порывы в срок и между сроками (в фигурных скобках) и направление, откуда дует ветер: С - северный, СВ - северо-восточный, В - восточный, ЮВ - юго-восточный, Ю - южный, ЮЗ - юго-западный, З - западный, СЗ - северо-западный.
Видимость - горизонтальная дальность видимости в метрах или километрах. При видимости от 1 до 10 км при отсутствии осадков обычно наблюдается дымка, при ухудшении видимости до 1 км и менее - туман. В сухую погоду видимость может ухудшаться дымом, пылью или мглою.
Явления - указаны атмосферные явления, наблюдавшиеся в срок или в последний час перед сроком; фигурными скобками обозначены явления, наблюдавшиеся между сроками (за 1-3 часа до срока); квадратными скобками обозначены град или гололедные отложения с указанием их диаметра в мм.
Облачность - указаны через наклонную черту общая и нижняя облачность в баллах и высота нижней границы облаков в метрах; квадратными скобками обозначены формы облаков: Ci - перистые, Cs - перисто-слоистые, Cc - перисто-кучевые, Ac - высококучевые, As - высокослоистые, Sc - слоисто-кучевые, Ns - слоисто-дождевые, Cu - кучевые, Cb - кучево-дождевые. Подробнее классификацию облаков см. в Атласе облаков (PDF).
T - Температура воздуха - температура, измеренная на высоте 2 м над землей.
Td - Температура точки росы - температура, при понижении до которой содержащийся в воздухе водяной пар достигнет насыщения.
f - Относительная влажность воздуха - влажноcть воздуха, измеренная на высоте 2 м над землей.
Te - Эффективная температура - температура, которую ощущает одетый по сезону человек в тени. Характеристика душности погоды. При расчете учитывается влияние влажности воздуха и скорости ветра на теплоощущения человека.
Tes - Эффективная температура на солнце - температура, которую ощущает человек, с поправкой на солнечный нагрев. Характеристика знойности погоды. Зависит от высоты солнца над горизонтом, облачности и скорости ветра. Ночью, в пасмурную погоду, а также при ветре 12 м/с и более поправка равна нулю.
P - Атмосферное давление - приведенное к уровню моря атмосферное давление.
Po - Атмосферное давление - измеренное на уровне метеостанции атмосферное давление.
Tmin - Минимальная температура - минимум температуры воздуха на высоте 2 м над землей.
Tmax - Максимальная температура - максимум температуры воздуха на высоте 2 м над землей.
R - Количество осадков - Количество выпавших осадков за период времени, мм. При наведении курсора мыши на число - период времени, за который выпало указанное количество осадков.
R24 - Количество осадков - Количество выпавших осадков за 24 часа, мм.
S - Снежный покров - Высота снежного покрова, см. При наведении курсора мыши на число - состояние снежного покрова и степень покрытия местности в баллах.